Time,TemperatureF,DewpointF,PressureIn,WindDirection,WindDirectionDegrees,WindSpeedMPH,WindSpeedGustMPH,Humidity,HourlyPrecipIn,Conditions,Clouds,dailyrainin,SoftwareType,DateUTC
2013-01-03 00:00:00,60.0,60.0,30.12,SE,135,0.0,1.0,100,0.00,,,0.00,Weather View 32 v70,2013-01-03 05:00:00,
2013-01-03 00:05:00,60.0,60.0,30.12,SE,135,0.0,1.0,100,0.00,,,0.00,Weather View 32 v70,2013-01-03 05:05:00,
2013-01-03 00:10:00,60.0,60.0,30.12,SE,135,0.0,1.0,100,0.00,,,0.00,Weather View 32 v70,2013-01-03 05:10:00,
2013-01-03 00:20:00,60.0,60.0,30.12,SE,135,0.0,0.0,100,0.00,,,0.00,Weather View 32 v70,2013-01-03 05:20:00,
2013-01-03 00:25:00,60.0,60.0,30.12,SE,135,0.0,0.0,100,0.00,,,0.00,Weather View 32 v70,2013-01-03 05:25:00,
2013-01-03 00:35:00,60.0,60.0,30.12,SE,135,0.0,0.0,100,0.00,,,0.00,Weather View 32 v70,2013-01-03 05:35:00,
2013-01-03 00:40:00,60.0,60.0,30.12,SE,135,0.0,0.0,100,0.00,,,0.00,Weather View 32 v70,2013-01-03 05:40:00,
2013-01-03 00:45:00,60.0,60.0,30.12,SE,135,0.0,0.0,100,0.00,,,0.00,Weather View 32 v70,2013-01-03 05:45:00,
2013-01-03 00:50:00,60.0,60.0,30.11,SE,135,0.0,0.0,100,0.00,,,0.00,Weather View 32 v70,2013-01-03 05:50:00,
2013-01-03 00:55:00,60.0,60.0,30.11,SE,135,0.0,0.0,100,0.00,,,0.00,Weather View 32 v70,2013-01-03 05:55:00,
2013-01-03 01:00:00,60.0,60.0,30.12,SE,135,0.0,0.0,100,0.00,,,0.00,Weather View 32 v70,2013-01-03 06:00:00,
2013-01-03 01:05:00,60.0,60.0,30.12,SSW,202,0.0,0.0,100,0.00,,,0.00,Weather View 32 v70,2013-01-03 06:05:00,
2013-01-03 01:10:00,59.0,59.0,30.12,SE,135,0.0,0.0,100,0.00,,,0.00,Weather View 32 v70,2013-01-03 06:10:00,
2013-01-03 01:15:00,59.0,59.0,30.12,SE,135,0.0,0.0,100,0.00,,,0.00,Weather View 32 v70,2013-01-03 06:15:00,
2013-01-03 01:20:00,59.0,59.0,30.12,SE,135,0.0,0.0,100,0.00,,,0.00,Weather View 32 v70,2013-01-03 06:20:00,
2013-01-03 01:25:00,58.0,58.0,30.12,SE,135,0.0,0.0,100,0.00,,,0.00,Weather View 32 v70,2013-01-03 06:25:00,
2013-01-03 01:30:00,58.0,58.0,30.13,SE,135,0.0,0.0,100,0.00,,,0.00,Weather View 32 v70,2013-01-03 06:30:00,
2013-01-03 01:35:00,58.0,58.0,30.13,SE,135,0.0,0.0,100,0.00,,,0.00,Weather View 32 v70,2013-01-03 06:35:00,
2013-01-03 01:40:00,57.0,57.0,30.13,SE,135,0.0,0.0,100,0.00,,,0.00,Weather View 32 v70,2013-01-03 06:40:00,
2013-01-03 01:50:00,57.0,57.0,30.13,SE,135,0.0,0.0,100,0.00,,,0.00,Weather View 32 v70,2013-01-03 06:50:00,
2013-01-03 01:55:00,57.0,57.0,30.13,SE,135,0.0,0.0,100,0.00,,,0.00,Weather View 32 v70,2013-01-03 06:55:00,
2013-01-03 01:56:00,57.0,57.0,30.13,SE,135,0.0,0.0,100,0.00,,,0.00,Weather View 32 v70,2013-01-03 06:56:00,
2013-01-03 02:00:00,57.0,57.0,30.13,SE,135,0.0,0.0,100,0.00,,,0.00,Weather View 32 v70,2013-01-03 07:00:00,
2013-01-03 02:05:00,57.0,57.0,30.13,SE,135,0.0,0.0,100,0.00,,,0.00,Weather View 32 v70,2013-01-03 07:05:00,
2013-01-03 02:10:00,57.0,57.0,30.13,SSW,202,0.0,0.0,100,0.00,,,0.00,Weather View 32 v70,2013-01-03 07:10:00,
2013-01-03 02:20:00,57.0,57.0,30.12,SE,135,0.0,0.0,100,0.00,,,0.00,Weather View 32 v70,2013-01-03 07:20:00,
2013-01-03 02:30:00,56.0,56.0,30.12,SE,135,0.0,0.0,100,0.00,,,0.00,Weather View 32 v70,2013-01-03 07:30:00,
2013-01-03 02:35:00,56.0,56.0,30.12,SSW,202,0.0,0.0,100,0.00,,,0.00,Weather View 32 v70,2013-01-03 07:35:00,
2013-01-03 02:40:00,56.0,56.0,30.13,SE,135,0.0,0.0,100,0.00,,,0.00,Weather View 32 v70,2013-01-03 07:40:00,
2013-01-03 02:45:00,56.0,56.0,30.13,SE,135,0.0,0.0,100,0.00,,,0.00,Weather View 32 v70,2013-01-03 07:45:00,
2013-01-03 02:50:00,56.0,56.0,30.12,SE,135,0.0,0.0,100,0.00,,,0.00,Weather View 32 v70,2013-01-03 07:50:00,
2013-01-03 02:55:00,56.0,56.0,30.12,SE,135,0.0,0.0,100,0.00,,,0.00,Weather View 32 v70,2013-01-03 07:55:00,
2013-01-03 03:00:00,56.0,56.0,30.12,SE,135,0.0,0.0,100,0.00,,,0.00,Weather View 32 v70,2013-01-03 08:00:00,
2013-01-03 03:05:00,56.0,56.0,30.12,SE,135,0.0,0.0,100,0.00,,,0.00,Weather View 32 v70,2013-01-03 08:05:00,
2013-01-03 03:10:00,55.0,55.0,30.13,SE,135,0.0,0.0,100,0.00,,,0.00,Weather View 32 v70,2013-01-03 08:10:00,
2013-01-03 07:25:00,55.0,55.0,30.16,SE,135,0.0,0.0,100,0.00,,,0.00,Weather View 32 v70,2013-01-03 12:25:00,
2013-01-03 07:30:00,55.0,55.0,30.17,SE,135,0.0,0.0,100,0.00,,,0.00,Weather View 32 v70,2013-01-03 12:30:00,
2013-01-03 07:35:00,55.0,55.0,30.17,SE,135,0.0,0.0,100,0.00,,,0.00,Weather View 32 v70,2013-01-03 12:35:00,
2013-01-03 07:40:00,55.0,55.0,30.17,SE,135,0.0,0.0,100,0.00,,,0.00,Weather View 32 v70,2013-01-03 12:40:00,
2013-01-03 07:45:00,55.0,55.0,30.17,SE,135,0.0,0.0,100,0.00,,,0.00,Weather View 32 v70,2013-01-03 12:45:00,
2013-01-03 07:55:00,56.0,56.0,30.17,SE,135,0.0,0.0,100,0.00,,,0.00,Weather View 32 v70,2013-01-03 12:55:00,
2013-01-03 08:00:00,57.0,57.0,30.16,SE,135,0.0,0.0,100,0.00,,,0.00,Weather View 32 v70,2013-01-03 13:00:00,
2013-01-03 08:05:00,57.0,57.0,30.16,SE,135,0.0,0.0,100,0.00,,,0.00,Weather View 32 v70,2013-01-03 13:05:00,
2013-01-03 08:15:00,58.0,58.0,30.17,SE,135,0.0,0.0,100,0.00,,,0.00,Weather View 32 v70,2013-01-03 13:15:00,
2013-01-03 08:20:00,59.0,59.0,30.17,SE,135,0.0,0.0,100,0.00,,,0.00,Weather View 32 v70,2013-01-03 13:20:00,
2013-01-03 08:25:00,60.0,60.0,30.17,SE,135,0.0,0.0,100,0.00,,,0.00,Weather View 32 v70,2013-01-03 13:25:00,
2013-01-03 08:26:00,60.0,60.0,30.17,SE,135,0.0,0.0,100,0.00,,,0.00,Weather View 32 v70,2013-01-03 13:26:00,
2013-01-03 08:30:00,60.0,60.0,30.17,SE,135,0.0,0.0,100,0.00,,,0.00,Weather View 32 v70,2013-01-03 13:30:00,
2013-01-03 08:35:00,61.0,61.0,30.17,SE,135,0.0,0.0,100,0.00,,,0.00,Weather View 32 v70,2013-01-03 13:35:00,
2013-01-03 08:40:00,61.0,61.0,30.17,SE,135,0.0,0.0,100,0.00,,,0.00,Weather View 32 v70,2013-01-03 13:40:00,
2013-01-03 08:45:00,61.0,61.0,30.17,ESE,112,0.0,1.0,100,0.00,,,0.00,Weather View 32 v70,2013-01-03 13:45:00,
2013-01-03 08:55:00,62.0,62.0,30.16,WSW,247,0.0,3.0,100,0.00,,,0.00,Weather View 32 v70,2013-01-03 13:55:00,
2013-01-03 09:00:00,62.0,62.0,30.16,WSW,247,0.0,3.0,100,0.00,,,0.00,Weather View 32 v70,2013-01-03 14:00:00,
2013-01-03 09:05:00,62.0,62.0,30.16,WSW,247,0.0,3.0,100,0.00,,,0.00,Weather View 32 v70,2013-01-03 14:05:00,
2013-01-03 09:10:00,63.0,63.0,30.16,WSW,247,0.0,3.0,100,0.00,,,0.00,Weather View 32 v70,2013-01-03 14:10:00,
2013-01-03 09:15:00,63.0,63.0,30.16,WSW,247,1.0,4.0,100,0.00,,,0.00,Weather View 32 v70,2013-01-03 14:15:00,
2013-01-03 09:20:00,63.0,63.0,30.17,WSW,247,0.0,4.0,100,0.00,,,0.00,Weather View 32 v70,2013-01-03 14:20:00,
2013-01-03 09:25:00,63.0,63.0,30.17,WSW,247,0.0,5.0,100,0.00,,,0.00,Weather View 32 v70,2013-01-03 14:25:00,
2013-01-03 09:26:00,63.0,63.0,30.17,WSW,247,0.0,5.0,100,0.00,,,0.00,Weather View 32 v70,2013-01-03 14:26:00,
2013-01-03 09:30:00,63.0,63.0,30.18,WSW,247,0.0,5.0,100,0.00,,,0.00,Weather View 32 v70,2013-01-03 14:30:00,
2013-01-03 09:35:00,63.0,63.0,30.18,WSW,247,0.0,5.0,100,0.00,,,0.00,Weather View 32 v70,2013-01-03 14:35:00,
2013-01-03 09:40:00,64.0,64.0,30.17,WSW,247,0.0,5.0,100,0.00,,,0.00,Weather View 32 v70,2013-01-03 14:40:00,
2013-01-03 09:45:00,64.0,64.0,30.17,WSW,247,0.0,5.0,100,0.00,,,0.00,Weather View 32 v70,2013-01-03 14:45:00,
2013-01-03 09:50:00,65.0,65.0,30.17,WSW,247,0.0,5.0,100,0.00,,,0.00,Weather View 32 v70,2013-01-03 14:50:00,
2013-01-03 09:55:00,65.0,65.0,30.17,WSW,247,0.0,5.0,100,0.00,,,0.00,Weather View 32 v70,2013-01-03 14:55:00,
2013-01-03 10:00:00,65.0,65.0,30.17,WSW,247,0.0,5.0,100,0.00,,,0.00,Weather View 32 v70,2013-01-03 15:00:00,
2013-01-03 10:05:00,65.0,65.0,30.17,WSW,247,0.0,5.0,100,0.00,,,0.00,Weather View 32 v70,2013-01-03 15:05:00,
2013-01-03 10:15:00,65.0,65.0,30.17,WSW,247,1.0,6.0,100,0.00,,,0.00,Weather View 32 v70,2013-01-03 15:15:00,
2013-01-03 10:20:00,66.0,66.0,30.17,WSW,247,0.0,6.0,100,0.00,,,0.00,Weather View 32 v70,2013-01-03 15:20:00,
2013-01-03 10:25:00,66.0,66.0,30.17,WSW,247,0.0,6.0,100,0.00,,,0.00,Weather View 32 v70,2013-01-03 15:25:00,
2013-01-03 10:30:00,66.0,66.0,30.17,SSW,202,0.0,6.0,100,0.00,,,0.00,Weather View 32 v70,2013-01-03 15:30:00,
2013-01-03 10:35:00,66.0,66.0,30.17,SW,225,0.0,6.0,100,0.00,,,0.00,Weather View 32 v70,2013-01-03 15:35:00,
2013-01-03 10:45:00,67.0,67.0,30.16,West,270,0.0,6.0,100,0.00,,,0.00,Weather View 32 v70,2013-01-03 15:45:00,
2013-01-03 10:50:00,68.0,67.4,30.16,SSW,202,0.0,6.0,98,0.00,,,0.00,Weather View 32 v70,2013-01-03 15:50:00,
2013-01-03 10:55:00,68.0,67.7,30.16,SSW,202,0.0,6.0,99,0.00,,,0.00,Weather View 32 v70,2013-01-03 15:55:00,
2013-01-03 11:00:00,69.0,67.8,30.15,SW,225,0.0,6.0,96,0.00,,,0.00,Weather View 32 v70,2013-01-03 16:00:00,
2013-01-03 11:10:00,71.0,68.2,30.14,North,360,0.0,6.0,91,0.00,,,0.00,Weather View 32 v70,2013-01-03 16:10:00,
2013-01-03 11:20:00,72.0,67.6,30.13,North,360,0.0,5.0,86,0.00,,,0.00,Weather View 32 v70,2013-01-03 16:20:00,
2013-01-03 11:24:00,72.0,67.2,30.13,NNW,337,0.0,5.0,85,0.00,,,0.00,Weather View 32 v70,2013-01-03 16:24:00,
2013-01-03 11:27:00,72.0,67.2,30.13,NNW,337,0.0,5.0,85,0.00,,,0.00,Weather View 32 v70,2013-01-03 16:27:00,
2013-01-03 11:30:00,74.0,71.8,30.12,NNW,337,0.0,5.0,93,0.00,,,0.00,Weather View 32 v70,2013-01-03 16:30:00,
2013-01-03 11:40:00,76.0,67.9,30.12,SW,225,0.0,4.0,76,0.00,,,0.00,Weather View 32 v70,2013-01-03 16:40:00,
2013-01-03 11:45:00,76.0,68.2,30.12,SW,225,1.0,4.0,77,0.00,,,0.00,Weather View 32 v70,2013-01-03 16:45:00,
2013-01-03 11:50:00,77.0,67.2,30.11,North,360,0.0,6.0,72,0.00,,,0.00,Weather View 32 v70,2013-01-03 16:50:00,
2013-01-03 12:00:00,78.0,67.0,30.10,NNW,337,0.0,6.0,69,0.00,,,0.00,Weather View 32 v70,2013-01-03 17:00:00,
2013-01-03 12:10:00,78.0,67.0,30.09,North,360,0.0,6.0,69,0.00,,,0.00,Weather View 32 v70,2013-01-03 17:10:00,
2013-01-03 12:15:00,77.0,65.2,30.09,North,360,0.0,6.0,67,0.00,,,0.00,Weather View 32 v70,2013-01-03 17:15:00,
2013-01-03 12:20:00,77.0,65.6,30.09,North,360,0.0,6.0,68,0.00,,,0.00,Weather View 32 v70,2013-01-03 17:20:00,
2013-01-03 12:25:00,76.0,65.1,30.09,North,360,0.0,6.0,69,0.00,,,0.00,Weather View 32 v70,2013-01-03 17:25:00,
2013-01-03 12:28:00,76.0,65.1,30.09,North,360,0.0,6.0,69,0.00,,,0.00,Weather View 32 v70,2013-01-03 17:28:00,
2013-01-03 12:30:00,76.0,65.5,30.10,North,360,0.0,6.0,70,0.00,,,0.00,Weather View 32 v70,2013-01-03 17:30:00,
2013-01-03 12:39:00,76.0,66.3,30.09,NE,45,1.0,6.0,72,0.00,,,0.00,Weather View 32 v70,2013-01-03 17:39:00,
2013-01-03 12:45:00,76.0,66.3,30.09,NE,45,1.0,6.0,72,0.00,,,0.00,Weather View 32 v70,2013-01-03 17:45:00,
2013-01-03 12:50:00,77.0,66.0,30.08,East,90,5.0,6.0,69,0.00,,,0.00,Weather View 32 v70,2013-01-03 17:50:00,
2013-01-03 12:55:00,77.0,66.4,30.08,NE,45,0.0,6.0,70,0.00,,,0.00,Weather View 32 v70,2013-01-03 17:55:00,
2013-01-03 13:00:00,77.0,65.6,30.07,North,360,0.0,6.0,68,0.00,,,0.00,Weather View 32 v70,2013-01-03 18:00:00,
2013-01-03 13:05:00,77.0,65.6,30.07,NNW,337,0.0,6.0,68,0.00,,,0.00,Weather View 32 v70,2013-01-03 18:05:00,
2013-01-03 13:10:00,78.0,65.7,30.07,North,360,1.0,6.0,66,0.00,,,0.00,Weather View 32 v70,2013-01-03 18:10:00,
2013-01-03 13:15:00,78.0,65.7,30.07,NNE,22,0.0,6.0,66,0.00,,,0.00,Weather View 32 v70,2013-01-03 18:15:00,
2013-01-03 13:20:00,78.0,65.7,30.06,NE,45,0.0,6.0,66,0.00,,,0.00,Weather View 32 v70,2013-01-03 18:20:00,
2013-01-03 13:29:00,77.0,65.2,30.06,NE,45,6.0,7.0,67,0.00,,,0.00,Weather View 32 v70,2013-01-03 18:29:00,
2013-01-03 13:30:00,77.0,65.2,30.06,North,360,0.0,7.0,67,0.00,,,0.00,Weather View 32 v70,2013-01-03 18:30:00,
2013-01-03 13:35:00,77.0,64.7,30.06,North,360,0.0,7.0,66,0.00,,,0.00,Weather View 32 v70,2013-01-03 18:35:00,
2013-01-03 13:40:00,78.0,65.7,30.06,NE,45,0.0,7.0,66,0.00,,,0.00,Weather View 32 v70,2013-01-03 18:40:00,
2013-01-03 13:50:00,78.0,64.8,30.06,NE,45,1.0,7.0,64,0.00,,,0.00,Weather View 32 v70,2013-01-03 18:50:00,
2013-01-03 13:55:00,78.0,65.2,30.06,NE,45,1.0,7.0,65,0.00,,,0.00,Weather View 32 v70,2013-01-03 18:55:00,
2013-01-03 14:00:00,78.0,65.2,30.05,NNW,337,2.0,7.0,65,0.00,,,0.00,Weather View 32 v70,2013-01-03 19:00:00,
2013-01-03 14:10:00,78.0,64.8,30.05,NE,45,3.0,7.0,64,0.00,,,0.00,Weather View 32 v70,2013-01-03 19:10:00,
2013-01-03 14:14:00,78.0,65.2,30.05,North,360,0.0,7.0,65,0.00,,,0.00,Weather View 32 v70,2013-01-03 19:14:00,
2013-01-03 14:55:00,75.0,64.9,30.07,NNW,337,0.0,9.0,71,0.00,,,0.00,Weather View 32 v70,2013-01-03 19:55:00,
2013-01-03 15:00:00,75.0,64.9,30.07,NNW,337,1.0,9.0,71,0.00,,,0.00,Weather View 32 v70,2013-01-03 20:00:00,
2013-01-03 15:05:00,74.0,64.8,30.07,North,360,0.0,9.0,73,0.00,,,0.00,Weather View 32 v70,2013-01-03 20:05:00,
2013-01-03 15:15:00,75.0,64.9,30.07,North,360,0.0,9.0,71,0.00,,,0.00,Weather View 32 v70,2013-01-03 20:15:00,
2013-01-03 15:20:00,75.0,64.9,30.06,North,360,0.0,9.0,71,0.00,,,0.00,Weather View 32 v70,2013-01-03 20:20:00,
2013-01-03 15:30:00,75.0,64.9,30.06,NNW,337,0.0,9.0,71,0.00,,,0.00,Weather View 32 v70,2013-01-03 20:30:00,
2013-01-03 15:35:00,75.0,64.9,30.06,North,360,1.0,9.0,71,0.00,,,0.00,Weather View 32 v70,2013-01-03 20:35:00,
2013-01-03 15:40:00,75.0,64.9,30.07,North,360,0.0,9.0,71,0.00,,,0.00,Weather View 32 v70,2013-01-03 20:40:00,
2013-01-03 15:44:00,74.0,64.0,30.07,North,360,0.0,9.0,71,0.00,,,0.00,Weather View 32 v70,2013-01-03 20:44:00,
2013-01-03 15:50:00,75.0,64.9,30.08,North,360,0.0,6.0,71,0.00,,,0.00,Weather View 32 v70,2013-01-03 20:50:00,
2013-01-03 15:55:00,74.0,64.4,30.08,North,360,1.0,6.0,72,0.00,,,0.00,Weather View 32 v70,2013-01-03 20:55:00,
2013-01-03 16:00:00,74.0,64.0,30.08,North,360,0.0,6.0,71,0.00,,,0.00,Weather View 32 v70,2013-01-03 21:00:00,
2013-01-03 16:10:00,73.0,63.8,30.09,North,360,0.0,7.0,73,0.00,,,0.00,Weather View 32 v70,2013-01-03 21:10:00,
2013-01-03 16:15:00,73.0,63.8,30.09,North,360,0.0,7.0,73,0.00,,,0.00,Weather View 32 v70,2013-01-03 21:15:00,
2013-01-03 16:25:00,72.0,64.4,30.09,NNE,22,1.0,7.0,77,0.00,,,0.00,Weather View 32 v70,2013-01-03 21:25:00,
2013-01-03 16:30:00,72.0,64.7,30.10,NNE,22,0.0,7.0,78,0.00,,,0.00,Weather View 32 v70,2013-01-03 21:30:00,
2013-01-03 16:40:00,71.0,64.5,30.11,North,360,0.0,7.0,80,0.00,,,0.00,Weather View 32 v70,2013-01-03 21:40:00,
2013-01-03 16:45:00,71.0,65.2,30.11,North,360,0.0,7.0,82,0.00,,,0.00,Weather View 32 v70,2013-01-03 21:45:00,
2013-01-03 16:50:00,71.0,65.2,30.11,North,360,0.0,7.0,82,0.00,,,0.00,Weather View 32 v70,2013-01-03 21:50:00,
2013-01-03 16:55:00,70.0,65.3,30.11,North,360,0.0,7.0,85,0.00,,,0.00,Weather View 32 v70,2013-01-03 21:55:00,
2013-01-03 17:05:00,70.0,65.9,30.12,North,360,1.0,7.0,87,0.00,,,0.00,Weather View 32 v70,2013-01-03 22:05:00,
2013-01-03 17:10:00,70.0,65.9,30.12,North,360,1.0,7.0,87,0.00,,,0.00,Weather View 32 v70,2013-01-03 22:10:00,
2013-01-03 17:15:00,70.0,65.9,30.12,North,360,0.0,7.0,87,0.00,,,0.00,Weather View 32 v70,2013-01-03 22:15:00,
2013-01-03 17:20:00,70.0,65.9,30.12,North,360,1.0,5.0,87,0.00,,,0.00,Weather View 32 v70,2013-01-03 22:20:00,
2013-01-03 17:25:00,69.0,65.0,30.12,North,360,1.0,5.0,87,0.00,,,0.00,Weather View 32 v70,2013-01-03 22:25:00,
2013-01-03 17:30:00,69.0,64.6,30.12,North,360,0.0,5.0,86,0.00,,,0.00,Weather View 32 v70,2013-01-03 22:30:00,
2013-01-03 17:31:00,69.0,64.6,30.12,North,360,0.0,5.0,86,0.00,,,0.00,Weather View 32 v70,2013-01-03 22:31:00,
2013-01-03 17:40:00,69.0,65.3,30.12,North,360,1.0,5.0,88,0.00,,,0.00,Weather View 32 v70,2013-01-03 22:40:00,
2013-01-03 17:45:00,69.0,65.6,30.12,NNW,337,4.0,9.0,89,0.00,,,0.00,Weather View 32 v70,2013-01-03 22:45:00,
2013-01-03 17:50:00,69.0,65.3,30.12,NNE,22,0.0,9.0,88,0.00,,,0.00,Weather View 32 v70,2013-01-03 22:50:00,
2013-01-03 17:55:00,68.0,64.6,30.12,East,90,0.0,9.0,89,0.00,,,0.00,Weather View 32 v70,2013-01-03 22:55:00,
2013-01-03 18:00:00,68.0,64.3,30.14,NW,315,3.0,9.0,88,0.00,,,0.00,Weather View 32 v70,2013-01-03 23:00:00,
2013-01-03 18:05:00,68.0,64.9,30.14,East,90,0.0,9.0,90,0.00,,,0.00,Weather View 32 v70,2013-01-03 23:05:00,
2013-01-03 18:15:00,68.0,64.9,30.14,NNE,22,0.0,9.0,90,0.00,,,0.00,Weather View 32 v70,2013-01-03 23:15:00,
2013-01-03 18:20:00,68.0,64.9,30.15,North,360,2.0,9.0,90,0.00,,,0.00,Weather View 32 v70,2013-01-03 23:20:00,
2013-01-03 18:25:00,67.0,64.3,30.15,NE,45,0.0,9.0,91,0.00,,,0.00,Weather View 32 v70,2013-01-03 23:25:00,
2013-01-03 18:32:00,68.0,64.9,30.15,NNW,337,0.0,9.0,90,0.00,,,0.00,Weather View 32 v70,2013-01-03 23:32:00,
2013-01-03 18:35:00,67.0,64.3,30.15,NNE,22,2.0,9.0,91,0.00,,,0.00,Weather View 32 v70,2013-01-03 23:35:00,
2013-01-03 18:40:00,67.0,64.0,30.16,NNE,22,0.0,9.0,90,0.00,,,0.00,Weather View 32 v70,2013-01-03 23:40:00,
2013-01-03 18:44:00,67.0,64.3,30.16,NE,45,1.0,9.0,91,0.00,,,0.00,Weather View 32 v70,2013-01-03 23:44:00,
2013-01-03 18:50:00,67.0,64.0,30.16,North,360,0.0,6.0,90,0.00,,,0.00,Weather View 32 v70,2013-01-03 23:50:00,
2013-01-03 18:55:00,67.0,64.3,30.16,NNW,337,0.0,6.0,91,0.00,,,0.00,Weather View 32 v70,2013-01-03 23:55:00,
2013-01-03 19:05:00,66.0,63.3,30.17,North,360,0.0,6.0,91,0.00,,,0.00,Weather View 32 v70,2013-01-04 00:05:00,
2013-01-03 19:15:00,66.0,63.3,30.17,North,360,0.0,6.0,91,0.00,,,0.00,Weather View 32 v70,2013-01-04 00:15:00,
2013-01-03 19:20:00,66.0,63.3,30.18,NNE,22,0.0,6.0,91,0.00,,,0.00,Weather View 32 v70,2013-01-04 00:20:00,
2013-01-03 19:25:00,66.0,63.3,30.18,NNE,22,1.0,6.0,91,0.00,,,0.00,Weather View 32 v70,2013-01-04 00:25:00,
2013-01-03 19:30:00,66.0,63.3,30.18,NNE,22,0.0,6.0,91,0.00,,,0.00,Weather View 32 v70,2013-01-04 00:30:00,
2013-01-03 19:32:00,66.0,63.3,30.18,NNE,22,0.0,6.0,91,0.00,,,0.00,Weather View 32 v70,2013-01-04 00:32:00,
2013-01-03 19:40:00,66.0,63.3,30.18,NNE,22,0.0,6.0,91,0.00,,,0.00,Weather View 32 v70,2013-01-04 00:40:00,
2013-01-03 19:45:00,66.0,63.3,30.18,NW,315,0.0,6.0,91,0.00,,,0.00,Weather View 32 v70,2013-01-04 00:45:00,
2013-01-03 19:50:00,66.0,63.3,30.19,NW,315,0.0,6.0,91,0.00,,,0.00,Weather View 32 v70,2013-01-04 00:50:00,
2013-01-03 19:55:00,66.0,63.6,30.19,NNW,337,0.0,6.0,92,0.00,,,0.00,Weather View 32 v70,2013-01-04 00:55:00,
2013-01-03 20:05:00,66.0,63.6,30.19,NE,45,0.0,6.0,92,0.00,,,0.00,Weather View 32 v70,2013-01-04 01:05:00,
2013-01-03 20:10:00,66.0,63.3,30.19,NNW,337,1.0,6.0,91,0.00,,,0.00,Weather View 32 v70,2013-01-04 01:10:00,
2013-01-03 20:15:00,66.0,63.6,30.19,North,360,0.0,6.0,92,0.00,,,0.00,Weather View 32 v70,2013-01-04 01:15:00,
2013-01-03 20:20:00,66.0,63.3,30.20,NNW,337,0.0,6.0,91,0.00,,,0.00,Weather View 32 v70,2013-01-04 01:20:00,
2013-01-03 20:25:00,66.0,63.6,30.20,NNW,337,1.0,6.0,92,0.00,,,0.00,Weather View 32 v70,2013-01-04 01:25:00,
2013-01-03 20:33:00,66.0,63.3,30.20,North,360,0.0,6.0,91,0.00,,,0.00,Weather View 32 v70,2013-01-04 01:33:00,
2013-01-03 20:35:00,66.0,63.6,30.20,NNW,337,6.0,7.0,92,0.00,,,0.00,Weather View 32 v70,2013-01-04 01:35:00,
2013-01-03 20:40:00,66.0,63.3,30.20,NNW,337,0.0,7.0,91,0.00,,,0.00,Weather View 32 v70,2013-01-04 01:40:00,
2013-01-03 20:45:00,66.0,63.6,30.20,NW,315,0.0,7.0,92,0.00,,,0.00,Weather View 32 v70,2013-01-04 01:45:00,
2013-01-03 20:50:00,66.0,63.3,30.20,NNW,337,0.0,7.0,91,0.00,,,0.00,Weather View 32 v70,2013-01-04 01:50:00,
2013-01-03 20:55:00,66.0,63.6,30.20,North,360,2.0,7.0,92,0.00,,,0.00,Weather View 32 v70,2013-01-04 01:55:00,
2013-01-03 21:00:00,66.0,63.3,30.20,NW,315,2.0,7.0,91,0.00,,,0.00,Weather View 32 v70,2013-01-04 02:00:00,
2013-01-03 21:05:00,65.0,62.6,30.20,NW,315,0.0,7.0,92,0.00,,,0.00,Weather View 32 v70,2013-01-04 02:05:00,
2013-01-03 21:10:00,66.0,63.6,30.19,NNW,337,1.0,7.0,92,0.00,,,0.00,Weather View 32 v70,2013-01-04 02:10:00,
2013-01-03 21:15:00,65.0,62.9,30.19,North,360,5.0,7.0,93,0.00,,,0.00,Weather View 32 v70,2013-01-04 02:15:00,
2013-01-03 21:20:00,66.0,63.6,30.20,East,90,0.0,7.0,92,0.00,,,0.00,Weather View 32 v70,2013-01-04 02:20:00,
2013-01-03 21:25:00,65.0,62.9,30.20,East,90,0.0,7.0,93,0.00,,,0.00,Weather View 32 v70,2013-01-04 02:25:00,
2013-01-03 21:30:00,66.0,63.6,30.20,North,360,3.0,7.0,92,0.00,,,0.00,Weather View 32 v70,2013-01-04 02:30:00,
2013-01-03 21:33:00,66.0,63.6,30.20,North,360,3.0,7.0,92,0.00,,,0.00,Weather View 32 v70,2013-01-04 02:33:00,
2013-01-03 21:35:00,65.0,62.9,30.20,North,360,2.0,7.0,93,0.00,,,0.00,Weather View 32 v70,2013-01-04 02:35:00,
2013-01-03 21:40:00,66.0,63.6,30.21,NW,315,0.0,7.0,92,0.00,,,0.00,Weather View 32 v70,2013-01-04 02:40:00,
2013-01-03 21:45:00,65.0,62.9,30.21,NW,315,0.0,7.0,93,0.00,,,0.00,Weather View 32 v70,2013-01-04 02:45:00,
2013-01-03 21:50:00,66.0,63.6,30.21,NW,315,0.0,7.0,92,0.00,,,0.00,Weather View 32 v70,2013-01-04 02:50:00,
2013-01-03 21:55:00,66.0,63.9,30.21,NNW,337,3.0,7.0,93,0.00,,,0.00,Weather View 32 v70,2013-01-04 02:55:00,
2013-01-03 22:00:00,66.0,63.9,30.21,NW,315,0.0,7.0,93,0.00,,,0.00,Weather View 32 v70,2013-01-04 03:00:00,
2013-01-03 22:10:00,66.0,63.9,30.21,NNW,337,0.0,7.0,93,0.00,,,0.00,Weather View 32 v70,2013-01-04 03:10:00,
2013-01-03 22:15:00,66.0,64.2,30.21,NNW,337,0.0,7.0,94,0.00,,,0.00,Weather View 32 v70,2013-01-04 03:15:00,
2013-01-03 22:20:00,66.0,64.2,30.21,NNW,337,0.0,7.0,94,0.00,,,0.00,Weather View 32 v70,2013-01-04 03:20:00,
2013-01-03 22:25:00,65.0,63.5,30.21,NNW,337,0.0,7.0,95,0.00,,,0.00,Weather View 32 v70,2013-01-04 03:25:00,
2013-01-03 22:30:00,65.0,63.5,30.22,NNW,337,0.0,7.0,95,0.00,,,0.00,Weather View 32 v70,2013-01-04 03:30:00,
2013-01-03 22:34:00,65.0,63.5,30.22,NNW,337,0.0,7.0,95,0.00,,,0.00,Weather View 32 v70,2013-01-04 03:34:00,
2013-01-03 22:35:00,65.0,63.8,30.22,North,360,0.0,6.0,96,0.00,,,0.00,Weather View 32 v70,2013-01-04 03:35:00,
2013-01-03 22:40:00,65.0,63.8,30.21,North,360,1.0,6.0,96,0.00,,,0.00,Weather View 32 v70,2013-01-04 03:40:00,
2013-01-03 22:45:00,65.0,63.8,30.21,North,360,1.0,6.0,96,0.00,,,0.00,Weather View 32 v70,2013-01-04 03:45:00,
2013-01-03 22:50:00,65.0,63.8,30.21,North,360,0.0,6.0,96,0.00,,,0.00,Weather View 32 v70,2013-01-04 03:50:00,
2013-01-03 22:55:00,65.0,63.8,30.21,North,360,0.0,6.0,96,0.00,,,0.00,Weather View 32 v70,2013-01-04 03:55:00,
2013-01-03 23:00:00,65.0,63.8,30.20,NNW,337,4.0,7.0,96,0.00,,,0.00,Weather View 32 v70,2013-01-04 04:00:00,
2013-01-03 23:10:00,65.0,63.8,30.21,NNW,337,1.0,7.0,96,0.00,,,0.00,Weather View 32 v70,2013-01-04 04:10:00,
2013-01-03 23:15:00,65.0,63.8,30.21,North,360,0.0,7.0,96,0.00,,,0.00,Weather View 32 v70,2013-01-04 04:15:00,
2013-01-03 23:20:00,65.0,63.8,30.21,North,360,2.0,8.0,96,0.00,,,0.00,Weather View 32 v70,2013-01-04 04:20:00,
2013-01-03 23:25:00,65.0,63.8,30.21,NNW,337,1.0,8.0,96,0.00,,,0.00,Weather View 32 v70,2013-01-04 04:25:00,
2013-01-03 23:30:00,65.0,63.5,30.21,NNW,337,1.0,8.0,95,0.00,,,0.00,Weather View 32 v70,2013-01-04 04:30:00,
2013-01-03 23:34:00,65.0,63.5,30.21,NNW,337,1.0,8.0,95,0.00,,,0.00,Weather View 32 v70,2013-01-04 04:34:00,
2013-01-03 23:35:00,65.0,63.5,30.21,ENE,67,0.0,8.0,95,0.00,,,0.00,Weather View 32 v70,2013-01-04 04:35:00,
2013-01-03 23:40:00,65.0,63.5,30.21,North,360,6.0,8.0,95,0.00,,,0.00,Weather View 32 v70,2013-01-04 04:40:00,
2013-01-03 23:50:00,65.0,63.2,30.21,NNE,22,3.0,8.0,94,0.00,,,0.00,Weather View 32 v70,2013-01-04 04:50:00,
2013-01-03 23:55:00,65.0,63.2,30.21,ENE,67,2.0,8.0,94,0.00,,,0.00,Weather View 32 v70,2013-01-04 04:55:00,